Redmond, OR

7:33 AM PST on February 20, 2017 (GMT -0800)
Roberts Field Airport

Weather History for KRDM - May, 2014

Change the Weather History Date:

Sunday, May 18, 2014

  Actual Average Record
Temperature  
Mean Temperature 52 °F 52 °F  
Max Temperature 61 °F 68 °F 90 °F (1954)
Min Temperature 42 °F 36 °F 26 °F (1989)
Degree Days  
Heating Degree Days 13 13  
Month to date heating degree days 237 276  
Since 1 July heating degree days 6332 6347  
Cooling Degree Days 0 0  
Month to date cooling degree days 0 0  
Year to date cooling degree days 0 0  
Growing Degree Days 2 (Base 50)    
Moisture  
Dew Point 38 °F    
Average Humidity 65    
Maximum Humidity 89    
Minimum Humidity 40    
Precipitation  
Precipitation 0.18 in 0.03 in 0.69 in (2004)
Month to date precipitation 0.33 0.54  
Year to date precipitation 3.42 3.55  
Sea Level Pressure  
Sea Level Pressure 29.86 in    
Wind  
Wind Speed 8 mph (WNW)    
Max Wind Speed 25 mph    
Max Gust Speed 32 mph    
Visibility 10 miles    
Events Rain    
T = Trace of Precipitation, MM = Missing Value Source: NWS Daily Summary

Daily Weather History Graph

Daily Weather History Graph

Search for Another Location

Airport or City:

Trip Planner

Search our weather history database for the weather conditions in past years. The results will help you decide how hot, cold, wet, or windy it might be!

Date:

Astronomy

May. 18, 2014 Rise Set
Actual Time 5:34 AM PDT 8:28 PM PDT
Civil Twilight 5:00 AM PDT 9:02 PM PDT
Nautical Twilight 4:17 AM PDT 9:45 PM PDT
Astronomical Twilight 3:26 AM PDT 10:36 PM PDT
Moon No Moon Rise 9:31 AM PDT (5/18)
Length of Visible Light 16h 01m
Length of Day
14h 53m
Waning Gibbous, 80% of the Moon is Illuminated
May 18
Waning Gibbous
May 21
Last Quarter
May 28
New
Jun 5
First Quarter
Jun 12
Full

Hourly Weather History & Observations

Time (PDT) Temp. Windchill Dew Point Humidity Pressure Visibility Wind Dir Wind Speed Gust Speed Precip Events Conditions
12:56 AM 53.1 °F - 39.0 °F 59% 29.82 in 10.0 mi WNW 6.9 mph - N/A   Overcast
1:56 AM 48.0 °F - 41.0 °F 77% 29.83 in 6.0 mi West 6.9 mph - 0.02 in Rain Rain
2:56 AM 45.0 °F 42.6 °F 41.0 °F 86% 29.84 in 5.0 mi North 4.6 mph - 0.14 in Rain Rain
3:56 AM 45.0 °F - 41.0 °F 86% 29.84 in 10.0 mi Calm Calm - 0.00 in   Overcast
4:56 AM 45.0 °F - 42.1 °F 90% 29.83 in 10.0 mi Calm Calm - 0.01 in Rain Light Rain
5:56 AM 45.0 °F 42.6 °F 42.1 °F 90% 29.83 in 10.0 mi East 4.6 mph - 0.01 in Rain Light Rain
6:56 AM 45.0 °F 42.6 °F 42.1 °F 90% 29.85 in 10.0 mi ENE 4.6 mph - 0.00 in   Overcast
7:56 AM 46.9 °F - 39.9 °F 77% 29.84 in 10.0 mi ENE 5.8 mph - N/A   Partly Cloudy
8:56 AM 50.0 °F - 41.0 °F 71% 29.85 in 10.0 mi Calm Calm - N/A   Scattered Clouds
9:56 AM 52.0 °F - 37.9 °F 59% 29.85 in 10.0 mi Variable 3.5 mph - N/A   Scattered Clouds
10:56 AM 52.0 °F - 39.9 °F 63% 29.86 in 10.0 mi SSW 4.6 mph - 0.00 in   Mostly Cloudy
11:56 AM 57.0 °F - 37.0 °F 47% 29.84 in 10.0 mi NW 10.4 mph - N/A   Partly Cloudy
12:56 PM 59.0 °F - 37.0 °F 44% 29.82 in 10.0 mi West 12.7 mph 19.6 mph N/A   Partly Cloudy
1:56 PM 59.0 °F - 36.0 °F 42% 29.84 in 10.0 mi West 17.3 mph 26.5 mph N/A   Partly Cloudy
2:56 PM 57.0 °F - 36.0 °F 45% 29.86 in 10.0 mi WNW 20.7 mph 29.9 mph N/A   Mostly Cloudy
3:56 PM 57.0 °F - 34.0 °F 42% 29.86 in 10.0 mi West 17.3 mph 26.5 mph N/A   Clear
4:56 PM 55.0 °F - 34.0 °F 45% 29.87 in 10.0 mi West 18.4 mph 23.0 mph N/A   Scattered Clouds
5:56 PM 54.0 °F - 35.1 °F 49% 29.88 in 10.0 mi NW 19.6 mph 23.0 mph N/A   Overcast
6:56 PM 52.0 °F - 35.1 °F 53% 29.88 in 10.0 mi WNW 13.8 mph - N/A   Overcast
7:56 PM 50.0 °F - 36.0 °F 59% 29.90 in 10.0 mi NNW 9.2 mph - N/A   Mostly Cloudy
8:56 PM 48.0 °F - 35.1 °F 61% 29.91 in 10.0 mi NW 13.8 mph - N/A   Overcast
9:56 PM 46.9 °F - 35.1 °F 63% 29.92 in 10.0 mi NW 5.8 mph - N/A   Mostly Cloudy
11:56 PM 44.1 °F 41.5 °F 36.0 °F 73% 29.93 in 10.0 mi SSE 4.6 mph - N/A   Overcast